TimeEST,TemperatureF,Dew PointF,Humidity,Sea Level PressureIn,VisibilityMPH,Wind Direction,Wind SpeedMPH,Gust SpeedMPH,PrecipitationIn,Events,Conditions,WindDirDegrees,DateUTC
12:15 AM,57.2,57.2,100,30.04,7.0,Calm,Calm,-,N/A,,Clear,0,2014-01-28 05:15:00
12:35 AM,55.4,55.4,100,30.03,5.0,Calm,Calm,-,N/A,,Clear,0,2014-01-28 05:35:00
12:55 AM,53.6,53.6,100,30.03,4.0,Calm,Calm,-,N/A,,Clear,0,2014-01-28 05:55:00
1:15 AM,55.4,55.4,100,30.04,2.5,Calm,Calm,-,N/A,,Clear,0,2014-01-28 06:15:00
1:35 AM,53.6,53.6,100,30.04,7.0,Calm,Calm,-,N/A,,Clear,0,2014-01-28 06:35:00
1:55 AM,53.6,53.6,100,30.03,7.0,Calm,Calm,-,N/A,,Scattered Clouds,0,2014-01-28 06:55:00
2:15 AM,53.6,53.6,100,30.01,0.2,Calm,Calm,-,N/A,Fog,Fog,0,2014-01-28 07:15:00
2:35 AM,55.4,55.4,100,30.01,0.2,Calm,Calm,-,N/A,Rain,Light Rain,0,2014-01-28 07:35:00
2:55 AM,55.4,55.4,100,30.01,0.2,Calm,Calm,-,N/A,Fog,Fog,0,2014-01-28 07:55:00
3:15 AM,55.4,55.4,100,30.01,0.2,Calm,Calm,-,N/A,Fog,Fog,0,2014-01-28 08:15:00
3:35 AM,55.4,55.4,100,30.01,0.5,Calm,Calm,-,N/A,Fog,Fog,0,2014-01-28 08:35:00
3:55 AM,55.4,55.4,100,30.01,0.5,Calm,Calm,-,N/A,Fog,Fog,0,2014-01-28 08:55:00
4:15 AM,53.6,53.6,100,30.02,0.2,Calm,Calm,-,N/A,Fog,Fog,0,2014-01-28 09:15:00
4:35 AM,55.4,55.4,100,30.01,0.2,Calm,Calm,-,N/A,Fog,Fog,0,2014-01-28 09:35:00
4:55 AM,55.4,55.4,100,30.01,0.2,Calm,Calm,-,N/A,Fog,Fog,0,2014-01-28 09:55:00
5:15 AM,55.4,55.4,100,30.02,0.2,Calm,Calm,-,N/A,Fog,Fog,0,2014-01-28 10:15:00
5:35 AM,55.4,55.4,100,30.02,0.2,Calm,Calm,-,N/A,Fog,Fog,0,2014-01-28 10:35:00
5:55 AM,55.4,55.4,100,30.03,0.2,Calm,Calm,-,N/A,Fog,Fog,0,2014-01-28 10:55:00
6:15 AM,55.4,55.4,100,30.04,0.2,Calm,Calm,-,N/A,,Light Drizzle,0,2014-01-28 11:15:00
6:35 AM,55.4,55.4,100,30.05,0.2,Calm,Calm,-,N/A,Fog,Fog,0,2014-01-28 11:35:00
6:55 AM,57.2,57.2,100,30.05,0.2,Calm,Calm,-,N/A,Fog,Fog,0,2014-01-28 11:55:00
7:15 AM,57.2,57.2,100,30.06,0.2,Calm,Calm,-,N/A,Fog,Fog,0,2014-01-28 12:15:00
7:35 AM,59.0,59.0,100,30.07,0.2,Calm,Calm,-,N/A,Fog,Fog,0,2014-01-28 12:35:00
8:15 AM,60.8,60.8,100,30.08,0.2,South,3.5,-,N/A,Fog,Fog,180,2014-01-28 13:15:00
8:35 AM,60.8,60.8,100,30.08,0.2,Calm,Calm,-,N/A,Fog,Fog,0,2014-01-28 13:35:00
8:55 AM,60.8,60.8,100,30.09,0.2,Calm,Calm,-,N/A,Fog,Fog,0,2014-01-28 13:55:00
9:15 AM,60.8,60.8,100,30.10,0.2,Calm,Calm,-,N/A,Fog,Fog,0,2014-01-28 14:15:00
9:35 AM,60.8,60.8,100,30.09,0.2,SSE,3.5,-,N/A,Fog,Fog,150,2014-01-28 14:35:00
9:55 AM,62.6,62.6,100,30.10,0.5,Calm,Calm,-,N/A,Fog,Fog,0,2014-01-28 14:55:00
10:15 AM,62.6,62.6,100,30.11,1.5,SSW,3.5,-,N/A,,Overcast,200,2014-01-28 15:15:00
10:35 AM,62.6,62.6,100,30.11,7.0,SSW,3.5,-,N/A,,Overcast,200,2014-01-28 15:35:00
10:55 AM,64.4,64.4,100,30.10,10.0,SSE,4.6,-,N/A,,Scattered Clouds,160,2014-01-28 15:55:00
11:15 AM,68.0,64.4,88,30.11,10.0,SSE,4.6,-,N/A,,Clear,160,2014-01-28 16:15:00
11:35 AM,69.8,62.6,78,30.10,10.0,South,4.6,-,N/A,,Clear,170,2014-01-28 16:35:00
11:55 AM,71.6,62.6,73,30.09,10.0,South,4.6,-,N/A,,Clear,170,2014-01-28 16:55:00
12:15 PM,73.4,62.6,69,30.07,10.0,South,6.9,-,N/A,,Clear,170,2014-01-28 17:15:00
12:35 PM,75.2,62.6,65,30.06,10.0,SSE,8.1,-,N/A,,Clear,150,2014-01-28 17:35:00
12:55 PM,75.2,60.8,61,30.05,10.0,South,6.9,-,N/A,,Clear,180,2014-01-28 17:55:00
1:15 PM,77.0,60.8,57,30.04,10.0,South,4.6,-,N/A,,Clear,170,2014-01-28 18:15:00
1:35 PM,77.0,60.8,57,30.03,10.0,SSW,6.9,-,N/A,,Clear,200,2014-01-28 18:35:00
1:55 PM,77.0,60.8,57,30.02,10.0,SSW,6.9,-,N/A,,Clear,200,2014-01-28 18:55:00
2:15 PM,77.0,60.8,57,30.01,10.0,SSE,9.2,-,N/A,,Clear,160,2014-01-28 19:15:00
2:35 PM,78.8,60.8,54,29.99,10.0,SSE,8.1,-,N/A,,Clear,150,2014-01-28 19:35:00
2:55 PM,78.8,60.8,54,29.99,10.0,SW,5.8,-,N/A,,Clear,220,2014-01-28 19:55:00
3:15 PM,78.8,60.8,54,29.99,10.0,South,8.1,-,N/A,,Clear,190,2014-01-28 20:15:00
3:35 PM,78.8,60.8,54,29.98,10.0,South,4.6,-,N/A,,Clear,170,2014-01-28 20:35:00
3:55 PM,78.8,60.8,54,29.98,10.0,SE,8.1,-,N/A,,Clear,140,2014-01-28 20:55:00
4:15 PM,78.8,60.8,54,29.98,10.0,South,5.8,-,N/A,,Clear,170,2014-01-28 21:15:00
4:35 PM,77.0,60.8,57,29.98,10.0,SSE,5.8,-,N/A,,Clear,160,2014-01-28 21:35:00
4:55 PM,77.0,60.8,57,29.99,10.0,SSE,3.5,-,N/A,,Scattered Clouds,150,2014-01-28 21:55:00
5:15 PM,77.0,60.8,57,29.99,10.0,SSE,4.6,-,N/A,,Scattered Clouds,150,2014-01-28 22:15:00
5:35 PM,73.4,60.8,65,29.99,10.0,SSE,3.5,-,N/A,,Clear,160,2014-01-28 22:35:00
5:55 PM,71.6,60.8,69,29.99,10.0,Calm,Calm,-,N/A,,Clear,0,2014-01-28 22:55:00
6:15 PM,71.6,60.8,69,29.99,10.0,Calm,Calm,-,N/A,,Scattered Clouds,0,2014-01-28 23:15:00
6:35 PM,68.0,60.8,78,30.00,10.0,Calm,Calm,-,N/A,,Scattered Clouds,0,2014-01-28 23:35:00
6:55 PM,68.0,60.8,78,30.00,10.0,Calm,Calm,-,N/A,,Clear,0,2014-01-28 23:55:00
7:15 PM,66.2,60.8,83,30.00,10.0,Calm,Calm,-,N/A,,Clear,0,2014-01-29 00:15:00
7:35 PM,66.2,59.0,78,30.01,10.0,Calm,Calm,-,N/A,,Clear,0,2014-01-29 00:35:00
7:55 PM,64.4,59.0,83,30.01,10.0,Calm,Calm,-,N/A,,Clear,0,2014-01-29 00:55:00
8:15 PM,62.6,59.0,88,30.03,10.0,WNW,3.5,-,N/A,,Clear,290,2014-01-29 01:15:00
8:35 PM,62.6,59.0,88,30.04,10.0,Calm,Calm,-,N/A,,Clear,0,2014-01-29 01:35:00
8:55 PM,62.6,59.0,88,30.04,10.0,Calm,Calm,-,N/A,,Clear,0,2014-01-29 01:55:00
9:15 PM,60.8,59.0,94,30.04,10.0,Calm,Calm,-,N/A,,Clear,0,2014-01-29 02:15:00
9:35 PM,60.8,59.0,94,30.04,10.0,Calm,Calm,-,N/A,,Clear,0,2014-01-29 02:35:00
9:55 PM,59.0,57.2,94,30.03,10.0,Calm,Calm,-,N/A,,Clear,0,2014-01-29 02:55:00
10:15 PM,59.0,59.0,100,30.04,10.0,Calm,Calm,-,N/A,,Clear,0,2014-01-29 03:15:00
10:35 PM,59.0,57.2,94,30.04,10.0,Calm,Calm,-,N/A,,Clear,0,2014-01-29 03:35:00
10:55 PM,59.0,55.4,88,30.05,10.0,Calm,Calm,-,N/A,,Clear,0,2014-01-29 03:55:00
11:15 PM,60.8,59.0,94,30.04,10.0,West,4.6,-,N/A,,Clear,260,2014-01-29 04:15:00
11:35 PM,60.8,57.2,88,30.04,10.0,WSW,3.5,-,N/A,,Clear,240,2014-01-29 04:35:00
11:55 PM,59.0,57.2,94,30.04,10.0,WSW,3.5,-,N/A,,Clear,250,2014-01-29 04:55:00